Home > Weather > Lisbon > Past weeks

Flag for Portugal Past Weather in Lisbon, Portugal — Yesterday and Last 2 Weeks

Now
63 °F

Passing clouds.


Feels Like: 63 °F
Forecast: 62 / 76 °F
Wind: 20 mph from Northwest

Location: Lisbon Portela Airport

Current Time: Jun 25, 2016 at 12:57:58 AM

Latest Report: Jun 25, 2016 at 12:30 AM


Visibility: N/A

Pressure: 30.09 "Hg

Humidity: 83%

Dew Point: 57 °F

Location of LisbonLocation

Past Weather in Lisbon — Graph

°F

Lisbon Temperature Yesterday

Maximum temperature yesterday: 75 °F (at 2:30 PM)
Minimum temperature yesterday: 63 °F (at 12:30 AM)
Average temperature yesterday: 67 °F

High & Low Weather Summary for the Past Weeks

 TemperatureHumidityPressure
High90 °F (Jun 20, 2:00 PM)94% (Jun 10, 2:00 AM)30.30 "Hg (Jun 10, 2:00 AM)
Low55 °F (Jun 17, 4:30 AM)21% (Jun 22, 4:00 PM)29.86 "Hg (Jun 15, 4:30 AM)
Average68 °F69%30.08 "Hg
* Reported Jun 9 11:00 PM — Jun 24 11:30 PM, Lisbon, Weather by CustomWeather, © 2016

Note: Actual official high and low records may vary slightly from our data, if they occured in-between our weather recording intervals... More about our weather records

Advertising

Lisbon Weather History for the Previous 24 Hours

Scroll right to see more
 ConditionsComfort  
Time TempWeatherWind HumidityBarometerVisibility
11:30 PM
Fri, Jun 24
63 °FPassing clouds.15 mph83%30.12 "HgN/A
11:00 PM63 °FPassing clouds.15 mph83%30.12 "HgN/A
10:30 PM63 °FPassing clouds.15 mph83%30.12 "HgN/A
10:00 PM63 °FPassing clouds.21 mph83%30.12 "HgN/A
9:30 PM64 °FPartly sunny.15 mph78%30.12 "HgN/A
9:00 PM64 °FScattered clouds.10 mph78%30.09 "HgN/A
8:30 PM64 °FScattered clouds.14 mph78%30.09 "HgN/A
8:00 PM66 °FPartly sunny.13 mph78%30.09 "HgN/A
7:30 PM68 °FScattered clouds.13 mph73%30.09 "HgN/A
7:00 PM68 °FScattered clouds.17 mph73%30.09 "HgN/A
6:30 PM70 °FPassing clouds.15 mph69%30.09 "HgN/A
6:00 PM72 °FPassing clouds.17 mph65%30.09 "HgN/A
5:30 PM70 °FScattered clouds.16 mph69%30.09 "HgN/A
5:00 PM70 °FScattered clouds.16 mph69%30.12 "HgN/A
4:30 PM70 °FPartly sunny.17 mph69%30.12 "HgN/A
4:00 PM73 °FPassing clouds.17 mph61%30.12 "HgN/A
3:30 PM73 °FPassing clouds.15 mph61%30.12 "HgN/A
3:00 PM73 °FPassing clouds.15 mph61%30.12 "HgN/A
2:30 PM75 °FPassing clouds.15 mph57%30.12 "HgN/A
2:00 PM73 °FPassing clouds.13 mph61%30.12 "HgN/A
1:30 PM73 °FPassing clouds.14 mph61%30.12 "HgN/A
1:00 PM73 °FPartly sunny.15 mph61%30.15 "HgN/A
12:30 PM72 °FPartly sunny.17 mph65%30.15 "HgN/A
12:00 PM70 °FPartly sunny.16 mph69%30.15 "HgN/A
11:30 AM72 °FScattered clouds.16 mph65%30.15 "HgN/A
11:00 AM70 °FScattered clouds.16 mph64%30.15 "HgN/A
10:30 AM70 °FPassing clouds.14 mph64%30.15 "HgN/A
10:00 AM68 °FScattered clouds.13 mph69%30.15 "HgN/A
9:30 AM68 °FScattered clouds.16 mph73%30.15 "HgN/A
9:00 AM66 °FScattered clouds.15 mph78%30.12 "HgN/A
8:30 AM66 °FPartly sunny.13 mph78%30.12 "HgN/A
8:00 AM64 °FScattered clouds.12 mph83%30.12 "HgN/A
7:30 AM64 °FPassing clouds.13 mph83%30.12 "HgN/A
7:00 AM63 °FPassing clouds.9 mph83%30.12 "HgN/A
6:30 AM63 °FPassing clouds.10 mph83%30.12 "HgN/A
6:00 AM63 °FPassing clouds.10 mph88%30.12 "HgN/A
5:30 AM63 °FPassing clouds.9 mph88%30.12 "HgN/A
5:00 AM63 °FPassing clouds.13 mph88%30.12 "HgN/A
4:30 AM63 °FPassing clouds.14 mph88%30.12 "HgN/A
4:00 AM63 °FPassing clouds.14 mph88%30.12 "HgN/A
3:30 AM63 °FPassing clouds.12 mph88%30.12 "HgN/A
3:00 AM63 °FPassing clouds.13 mph88%30.12 "HgN/A
2:30 AM63 °FPassing clouds.10 mph88%30.12 "HgN/A
2:00 AM63 °FPassing clouds.13 mph88%30.12 "HgN/A
1:30 AM63 °FPassing clouds.12 mph88%30.12 "HgN/A
1:00 AM63 °FPassing clouds.8 mph88%30.12 "HgN/A
12:30 AM63 °FClear.9 mph88%30.12 "Hg10 mi
12:00 AM64 °FClear.12 mph83%30.12 "Hg10 mi
Weather by CustomWeather, © 2016

See weather overviewHow to use our weather pages